VLG85GB LEBL-LIBD

Flight info

Callsign VLG85GB
Flight time N/A
Altitude 37000
Route DIPES N725 OSPOK DCT NOLVI DCT ORKUM/N0432F360 DCT ELSAG DCT ALG DCT ARSIK DCT MOROB DCT ORVEX DCT KOLUS DCT IDEPA DCT SUKUN DCT ATNET DCT ROXAN DCT TURMO DCT ROTUN DCT PNZ DCT DOGUS
Aircraft A320/M-SDE3FGHIRWY/LB1

Departure

Time N/A
Airport Josep Tarradellas Barcelona-El Prat Airport (LEBL)

Arrival

Time 2026-04-30 10:19
Airport Bari Karol Wojtyła International Airport (LIBD)
Time Latitude Longitude Altitude Speed Heading
2026-04-30 09:24 40.63780 8.36233 37085 ft 509 kts 81°
2026-04-30 09:25 40.64520 8.45559 37096 ft 508 kts 81°
2026-04-30 09:25 40.65235 8.54742 37099 ft 507 kts 81°
2026-04-30 09:26 40.65952 8.63972 37093 ft 507 kts 81°
2026-04-30 09:26 40.66664 8.73202 37103 ft 506 kts 81°
2026-04-30 09:27 40.67370 8.82420 37110 ft 506 kts 81°
2026-04-30 09:27 40.68073 8.91630 37106 ft 505 kts 81°
2026-04-30 09:28 40.68746 9.00848 37108 ft 505 kts 82°
2026-04-30 09:28 40.69407 9.10060 37130 ft 505 kts 82°
2026-04-30 09:29 40.70065 9.19282 37126 ft 505 kts 82°
2026-04-30 09:29 40.70721 9.28502 37129 ft 505 kts 82°
2026-04-30 09:30 40.71369 9.37723 37127 ft 505 kts 82°
2026-04-30 09:30 40.72009 9.46949 37153 ft 505 kts 81°
2026-04-30 09:31 40.72678 9.56165 37147 ft 505 kts 81°
2026-04-30 09:31 40.73354 9.65372 37152 ft 505 kts 82°
2026-04-30 09:32 40.73971 9.74587 37148 ft 504 kts 82°
2026-04-30 09:32 40.74569 9.83801 37159 ft 504 kts 82°
2026-04-30 09:33 40.75168 9.93007 37149 ft 504 kts 82°
2026-04-30 09:33 40.75776 10.02210 37143 ft 504 kts 82°
2026-04-30 09:34 40.76380 10.11415 37142 ft 504 kts 82°
2026-04-30 09:34 40.76972 10.20626 37155 ft 504 kts 82°
2026-04-30 09:35 40.77559 10.29829 37153 ft 503 kts 82°
2026-04-30 09:35 40.78134 10.39027 37149 ft 503 kts 82°
2026-04-30 09:36 40.78697 10.48158 37150 ft 502 kts 82°
2026-04-30 09:36 40.79261 10.57349 37140 ft 502 kts 82°
2026-04-30 09:37 40.79811 10.66533 37157 ft 502 kts 82°
2026-04-30 09:37 40.80355 10.75707 37143 ft 501 kts 82°
2026-04-30 09:38 40.80887 10.84884 37143 ft 501 kts 82°
2026-04-30 09:38 40.81413 10.94061 37150 ft 501 kts 82°
2026-04-30 09:39 40.81941 11.03240 37162 ft 501 kts 83°
2026-04-30 09:39 40.82457 11.12416 37149 ft 501 kts 83°
2026-04-30 09:40 40.82963 11.21595 37152 ft 501 kts 83°
2026-04-30 09:40 40.83381 11.29227 37141 ft 501 kts 83°
2026-04-30 09:41 40.83861 11.38401 37164 ft 501 kts 83°
2026-04-30 09:41 40.84401 11.49060 37148 ft 500 kts 83°
2026-04-30 09:42 40.84795 11.56736 37153 ft 500 kts 83°
2026-04-30 09:42 40.85263 11.65894 37149 ft 500 kts 83°
2026-04-30 09:43 40.85711 11.74989 37150 ft 499 kts 84°
2026-04-30 09:43 40.86148 11.84143 37146 ft 499 kts 84°
2026-04-30 09:44 40.86587 11.93289 37144 ft 499 kts 84°
2026-04-30 09:44 40.87027 12.02436 37142 ft 499 kts 84°
2026-04-30 09:45 40.87463 12.11580 37154 ft 499 kts 84°
2026-04-30 09:45 40.87887 12.20735 37147 ft 499 kts 84°
2026-04-30 09:46 40.88298 12.29890 37143 ft 499 kts 84°
2026-04-30 09:46 40.88715 12.39047 37142 ft 499 kts 84°
2026-04-30 09:47 40.89210 12.49691 37160 ft 499 kts 84°
2026-04-30 09:47 40.89555 12.57363 37155 ft 499 kts 84°
2026-04-30 09:48 40.89945 12.66355 37139 ft 481 kts 84°
2026-04-30 09:48 40.90318 12.75079 37129 ft 477 kts 84°
2026-04-30 09:49 40.90690 12.83822 37130 ft 476 kts 84°
2026-04-30 09:49 40.91054 12.92557 37134 ft 476 kts 85°
2026-04-30 09:50 40.91425 13.01286 37136 ft 475 kts 84°
2026-04-30 09:50 40.91876 13.10004 37132 ft 475 kts 83°
2026-04-30 09:51 40.92340 13.18721 37141 ft 475 kts 84°
2026-04-30 09:51 40.92778 13.27439 37129 ft 475 kts 84°
2026-04-30 09:52 40.93193 13.36161 37126 ft 475 kts 84°
2026-04-30 09:52 40.93599 13.44878 37124 ft 475 kts 84°
2026-04-30 09:53 40.94005 13.53596 37123 ft 475 kts 84°
2026-04-30 09:53 40.94411 13.62316 37122 ft 475 kts 84°
2026-04-30 09:54 40.94809 13.71030 37118 ft 475 kts 84°
2026-04-30 09:54 40.95194 13.79750 37123 ft 475 kts 85°
2026-04-30 09:55 40.95572 13.88543 37101 ft 475 kts 85°
2026-04-30 09:55 40.95944 13.97215 37100 ft 476 kts 85°
2026-04-30 09:56 40.96313 14.05960 37067 ft 477 kts 85°
2026-04-30 09:56 40.96497 14.10399 36819 ft 477 kts 85°
2026-04-30 09:56 40.96677 14.14772 36558 ft 476 kts 85°
2026-04-30 09:57 40.96857 14.19146 36298 ft 476 kts 85°
2026-04-30 09:57 40.97036 14.23520 36063 ft 476 kts 85°
2026-04-30 09:57 40.97209 14.27897 35810 ft 477 kts 85°
2026-04-30 09:57 40.97378 14.32276 35557 ft 477 kts 85°
2026-04-30 09:58 40.97546 14.36656 35308 ft 477 kts 85°
2026-04-30 09:58 40.97716 14.41034 35067 ft 476 kts 85°
2026-04-30 09:58 40.97884 14.45332 34722 ft 473 kts 85°
2026-04-30 09:58 40.98054 14.49678 34116 ft 472 kts 85°
2026-04-30 09:59 40.98378 14.58301 32917 ft 466 kts 85°
2026-04-30 09:59 40.98685 14.66811 31779 ft 460 kts 85°
2026-04-30 10:00 40.98990 14.75226 30664 ft 455 kts 85°
2026-04-30 10:00 40.99142 14.79405 30095 ft 454 kts 85°
2026-04-30 10:01 40.99432 14.87679 28985 ft 446 kts 85°
2026-04-30 10:01 40.99573 14.91765 28471 ft 442 kts 85°
2026-04-30 10:01 40.99713 14.95814 27957 ft 438 kts 86°
2026-04-30 10:02 40.99982 15.03809 26984 ft 432 kts 86°
2026-04-30 10:02 41.00111 15.07775 26507 ft 430 kts 86°
2026-04-30 10:02 41.00240 15.11720 26030 ft 428 kts 86°
2026-04-30 10:02 41.00366 15.15648 25533 ft 426 kts 86°
2026-04-30 10:03 41.00489 15.19557 25041 ft 424 kts 86°
2026-04-30 10:03 41.00613 15.23457 24526 ft 424 kts 86°
2026-04-30 10:03 41.00735 15.27349 24017 ft 423 kts 86°
2026-04-30 10:03 41.00855 15.31247 23431 ft 425 kts 86°
2026-04-30 10:04 41.00975 15.35154 22895 ft 424 kts 86°
2026-04-30 10:04 41.01093 15.39047 22361 ft 423 kts 86°
2026-04-30 10:04 41.01209 15.42926 21932 ft 419 kts 86°
2026-04-30 10:04 41.01219 15.46777 21579 ft 414 kts 96°
2026-04-30 10:05 41.00507 15.50393 21446 ft 399 kts 116°
2026-04-30 10:05 40.99183 15.53539 20897 ft 387 kts 124°
2026-04-30 10:05 40.97755 15.56526 20180 ft 381 kts 124°
2026-04-30 10:05 40.96328 15.59461 19489 ft 377 kts 124°
2026-04-30 10:06 40.94909 15.62362 18838 ft 374 kts 124°
2026-04-30 10:06 40.93498 15.65228 18150 ft 370 kts 124°
2026-04-30 10:06 40.92097 15.68048 17471 ft 364 kts 124°
2026-04-30 10:06 40.90713 15.70823 16782 ft 359 kts 124°
2026-04-30 10:07 40.89347 15.73548 16144 ft 352 kts 124°
2026-04-30 10:07 40.88169 15.76346 15693 ft 347 kts 110°
2026-04-30 10:07 40.87495 15.79415 15445 ft 348 kts 105°
2026-04-30 10:07 40.86870 15.82499 15197 ft 347 kts 105°
2026-04-30 10:08 40.86250 15.85573 14958 ft 346 kts 104°
2026-04-30 10:08 40.85634 15.88633 14714 ft 344 kts 104°
2026-04-30 10:08 40.85030 15.91636 14429 ft 331 kts 104°
2026-04-30 10:08 40.84448 15.94523 14079 ft 319 kts 104°
2026-04-30 10:09 40.83887 15.97305 13856 ft 310 kts 104°
2026-04-30 10:09 40.83340 16.00031 13623 ft 305 kts 105°
2026-04-30 10:09 40.82950 16.02772 13357 ft 304 kts 92°
2026-04-30 10:09 40.83075 16.05537 13094 ft 301 kts 76°
2026-04-30 10:10 40.83689 16.08154 12781 ft 298 kts 66°
2026-04-30 10:10 40.84437 16.10729 12376 ft 300 kts 66°
2026-04-30 10:10 40.85180 16.13303 11965 ft 301 kts 64°
2026-04-30 10:10 40.85936 16.15828 11790 ft 289 kts 60°
2026-04-30 10:11 40.87074 16.17949 11185 ft 284 kts 39°
2026-04-30 10:11 40.88562 16.19742 10437 ft 295 kts 39°
2026-04-30 10:11 40.90091 16.21551 9638 ft 295 kts 37°
2026-04-30 10:11 40.91613 16.23353 8825 ft 293 kts 37°
2026-04-30 10:12 40.93116 16.25142 8092 ft 288 kts 39°
2026-04-30 10:12 40.94539 16.26846 7693 ft 274 kts 37°
2026-04-30 10:12 40.95921 16.28507 7259 ft 262 kts 37°
2026-04-30 10:12 40.97246 16.30097 6869 ft 252 kts 36°
2026-04-30 10:13 40.98514 16.31618 6515 ft 240 kts 37°
2026-04-30 10:13 40.99700 16.33044 6445 ft 227 kts 35°
2026-04-30 10:13 41.00872 16.34445 6363 ft 227 kts 38°
2026-04-30 10:13 41.02036 16.35865 6236 ft 230 kts 43°
2026-04-30 10:14 41.02902 16.37681 5918 ft 237 kts 64°
2026-04-30 10:14 41.03490 16.39720 5607 ft 237 kts 64°
2026-04-30 10:14 41.04649 16.43781 4981 ft 235 kts 65°
2026-04-30 10:15 41.05229 16.45806 4662 ft 235 kts 63°
2026-04-30 10:15 41.05807 16.47821 4343 ft 234 kts 64°
2026-04-30 10:15 41.06383 16.49832 4026 ft 233 kts 65°
2026-04-30 10:15 41.06957 16.51838 3714 ft 232 kts 65°
2026-04-30 10:16 41.07527 16.53832 3409 ft 231 kts 63°
2026-04-30 10:16 41.08095 16.55821 3095 ft 230 kts 62°
2026-04-30 10:16 41.08661 16.57801 2799 ft 229 kts 64°
2026-04-30 10:17 41.09787 16.61752 2180 ft 229 kts 64°
2026-04-30 10:17 41.10902 16.65674 1558 ft 219 kts 63°
2026-04-30 10:17 41.11421 16.67504 1282 ft 204 kts 64°
2026-04-30 10:18 41.11896 16.69179 1033 ft 185 kts 64°
2026-04-30 10:18 41.12339 16.70716 739 ft 172 kts 63°
2026-04-30 10:18 41.12747 16.72132 516 ft 158 kts 66°
2026-04-30 10:19 41.13481 16.74731 141 ft 136 kts 68°
2026-04-30 10:19 41.13747 16.75681 140 ft 84 kts 70°
2026-04-30 10:19 41.13905 16.76245 128 ft 57 kts 69°
2026-04-30 10:19 41.13999 16.76580 122 ft 19 kts 71°
2026-04-30 10:20 41.13972 16.76709 125 ft 10 kts 116°
2026-04-30 10:20 41.13892 16.76824 124 ft 8 kts 189°
2026-04-30 10:20 41.13868 16.76781 126 ft 4 kts 244°
2026-04-30 10:21 41.13861 16.76765 124 ft 0 kts 233°
2026-04-30 10:21 41.13833 16.76766 130 ft 10 kts 166°
2026-04-30 10:21 41.13767 16.76750 134 ft 8 kts 237°
2026-04-30 10:21 41.13754 16.76700 136 ft 4 kts 250°
2026-04-30 10:22 41.13733 16.76623 136 ft 14 kts 250°
2026-04-30 10:22 41.13666 16.76527 136 ft 15 kts 216°
2026-04-30 10:22 41.13623 16.76409 136 ft 9 kts 259°
2026-04-30 10:22 41.13658 16.76381 136 ft 6 kts 334°
2026-04-30 10:23 41.13680 16.76389 136 ft 0 kts 26°